[[{"header":{"parameterUnit":"m.s-1","parameterCategory":1,"la1":30.2991,"la2":30.254,"lo1":-89.0895,"lo2":-89.0444,"dy":0.0017,"dx":0.0017,"nx":28,"ny":28,"refTime":"2024-09-27T03:00:00:Z","depth":0,"parameterNumber":2,"parameterNumberName":"U-component_of_WINDS"},"data":[0,0,0,0,0,0,0,0,0,0,0,0,0,0,0,0,0,0,0,0,0,0,0,0,0,0,0,0,0,0,0,0,0,0,0,0,0,0,0,0,0,0,0,0,0,0,0,0,0,0,0,0,0,0,0,0,0,0,6.38,6.3803,0,6.4028,6.4031,6.4033,6.3983,6.3979,6.3975,6.3971,6.4206,6.4215,6.4226,0,0,0,0,0,0,0,0,0,0,0,0,0,6.332,6.3329,6.38,6.3803,6.3806,6.4028,6.4031,6.4034,6.3984,6.3979,6.3974,6.3969,6.4202,6.4214,6.4227,0,0,0,0,0,0,0,0,0,0,0,0,0,6.3536,6.3332,6.38,6.3807,6.381,6.4027,6.4031,6.4035,6.3985,6.3979,6.3972,6.3966,6.4198,6.4213,6.4228,6.4452,0,0,6.4275,6.4282,0,0,0,0,0,0,0,0,6.3524,6.3554,6.3804,6.3807,6.3811,6.3971,6.3948,6.4175,6.3987,6.3919,6.3971,6.3963,6.4133,6.4153,6.421,6.4463,6.4473,6.4277,6.4286,6.4293,6.4297,0,0,0,0,0,0,0,6.3509,6.3544,6.389,6.3807,6.3812,6.3799,6.3823,6.3991,6.4059,6.3924,6.3921,6.3949,6.4134,6.4195,6.4215,6.4476,6.4276,6.429,6.4299,6.4305,6.4919,6.4926,0,0,0,0,0,0,6.3491,6.3532,6.3883,6.3897,6.3649,6.3813,6.384,6.3926,6.4057,6.4071,6.3954,6.3946,6.4172,6.4197,6.4223,6.449,6.4292,6.4307,6.4316,6.4912,6.4921,6.4928,0,0,0,0,0,0,6.3481,6.3523,6.3874,6.3714,6.3757,6.3828,6.3926,6.3934,6.3995,6.408,6.4091,6.4005,6.4168,6.4202,6.4394,6.4497,6.4314,6.4328,6.4904,6.4915,6.4924,6.5027,0,0,0,0,0,0,6.3467,6.3519,6.3605,6.3716,6.3766,6.4042,6.3932,6.3943,6.4022,6.4013,6.413,6.4143,6.4166,6.4371,6.4409,6.4515,6.434,6.4895,6.4908,6.4921,6.5014,6.504,6.5061,0,0,0,0,0,6.345,6.3627,6.361,6.3653,6.3875,6.4048,6.4076,6.4098,6.4031,6.4117,6.417,6.414,6.448,6.4392,6.4434,6.4546,6.4888,6.4905,6.492,6.5004,6.5035,6.5061,0,0,0,0,0,0,6.3528,6.3641,6.3624,6.3842,6.3935,6.4039,6.4149,6.4131,6.4246,6.4233,6.4255,6.4282,6.4477,6.4531,6.443,6.4767,6.4674,6.47,6.4724,6.4754,6.4777,6.4758,6.4352,0,0,0,0,0,6.357,6.37,6.3793,6.3976,6.4023,6.4078,6.4154,6.4162,6.4261,6.43,6.4368,6.4464,6.4592,6.4676,6.48,6.5023,6.5045,6.512,6.5144,6.5162,6.5183,6.5301,6.5334,6.4981,6.498,6.498,0,0,6.3659,6.3737,6.3818,6.3993,6.4067,6.42,6.4112,6.4258,6.4357,6.4323,6.4507,6.456,6.4669,6.4876,6.4971,6.4928,6.5286,6.5183,6.5197,6.5208,6.532,6.5354,6.5383,6.4991,6.4989,6.4988,0,0,6.3888,6.3962,6.412,6.4195,6.4306,6.4341,6.4379,6.4486,6.4519,6.4704,6.468,6.4798,6.502,6.5097,6.5165,6.542,6.5395,6.546,6.5581,6.5696,6.5723,6.5748,6.5835,6.5867,6.5481,6.5481,6.5482,0,6.3984,6.4184,6.4204,6.4351,6.4427,6.4401,6.456,6.4632,6.4779,6.4832,6.4781,6.5055,6.5127,6.535,6.5412,6.547,6.5511,6.5446,6.5718,6.5743,6.5766,6.5849,6.5882,6.5488,6.5487,6.5487,6.5486,0,6.4295,6.4434,6.4549,6.4689,6.4778,6.4931,6.4972,6.5061,6.5061,6.5101,6.5288,6.5373,6.5511,6.5565,6.5568,6.5788,6.5756,6.5712,6.5619,6.5806,6.5884,6.5917,6.5498,6.5496,6.5494,6.5492,0,0,6.458,6.4726,6.4768,6.4829,6.4949,6.5057,6.5207,6.5341,6.5414,6.5516,6.5641,6.5828,6.5786,6.5863,6.5874,6.5975,6.6167,6.5918,6.592,6.5958,6.641,6.644,6.6477,6.6152,6.6158,6.6163,6.6399,0,6.4817,6.5081,6.5102,6.534,6.5466,6.5442,6.5573,6.566,6.5701,6.5814,6.5859,6.5989,6.5926,6.5972,6.6071,6.6123,6.6257,6.6106,6.6266,6.6271,6.6235,6.6519,6.6552,6.6771,6.643,6.6436,6.644,0,6.5129,6.5237,6.5487,6.5585,6.5639,6.5757,6.5878,6.5988,6.6085,6.6107,6.6192,6.6189,6.6341,6.6245,6.6454,6.6351,6.6417,6.6452,6.6461,6.6474,6.6364,6.6536,6.6842,6.6873,6.6489,6.6485,6.6481,0,6.5306,6.5515,6.569,6.5744,6.5865,6.5947,6.6001,6.6092,6.617,6.6277,6.6326,6.6451,6.6518,6.6613,6.6642,6.657,6.6849,6.6756,6.687,6.6869,6.6928,6.6923,6.7245,6.6977,6.6976,6.6976,6.6975,0,6.5567,6.572,6.5771,6.5879,6.6048,6.607,6.6237,6.6287,6.6367,6.6483,6.6471,6.6579,6.6613,6.6727,6.6751,6.6918,6.695,6.697,6.6974,6.697,6.6966,6.7011,6.6995,6.6985,6.6983,6.6981,6.6979,0,6.5793,6.5834,6.6023,6.612,6.6148,6.6268,6.6351,6.6454,6.6492,6.6638,6.6674,6.6734,6.6867,6.6906,6.7067,6.7083,6.7278,6.727,6.7244,6.7243,6.7353,6.7341,6.7712,6.776,6.7464,6.7467,6.7469,0,6.5955,6.6072,6.6181,6.6256,6.6313,6.6437,6.6515,6.654,6.6622,6.674,6.6828,6.6959,6.7065,6.7279,6.7336,6.7459,6.7451,6.7573,6.7469,6.7459,6.7448,6.7439,6.7449,6.7591,6.7595,6.7597,6.7599,0,6.6237,6.6251,6.6364,6.6483,6.6577,6.6673,6.6764,6.6827,6.6866,6.6958,6.7093,6.7176,6.7338,6.7467,6.7591,6.7645,6.7628,6.7632,6.7663,6.7658,6.7636,6.7645,6.7293,6.7622,6.762,6.7618,6.7617,6.7616,6.6434,6.6534,6.6625,6.6751,6.6822,6.6908,6.7007,6.7057,6.717,6.7303,6.7312,6.7457,6.7548,6.7711,6.7773,6.7886,6.785,6.7898,6.7909,6.7919,6.7926,6.7621,6.7909,6.7908,6.7908,6.7907,6.7907,0,6.6711,6.6768,6.6883,6.7011,6.7109,6.7084,6.7183,6.7266,6.7394,6.7481,6.7584,6.7738,6.7862,6.7929,6.8052,6.813,6.8125,6.8161,6.8154,6.8166,6.7953,6.7911,6.8163,6.8163,6.8163,6.8163,6.8162,6.8162,6.6867,6.7034,6.7058,6.726,6.7316,6.7457,6.7515,6.7593,6.7662,6.7833,6.7936,6.7978,6.8055,6.8184,6.8296,6.8312,6.8357,6.8397,6.8408,6.8208,6.8181,6.8156,6.8116,6.8407,6.8407,6.861,6.8612,6.8614]},{"header":{"parameterUnit":"m.s-1","parameterCategory":1,"la1":30.2991,"la2":30.254,"lo1":-89.0895,"lo2":-89.0444,"dy":0.0017,"dx":0.0017,"nx":28,"ny":28,"refTime":"2024-09-27T03:00:00:Z","depth":0,"parameterNumber":3,"parameterNumberName":"V-component_of_WINDS"},"data":[0,0,0,0,0,0,0,0,0,0,0,0,0,0,0,0,0,0,0,0,0,0,0,0,0,0,0,0,0,0,0,0,0,0,0,0,0,0,0,0,0,0,0,0,0,0,0,0,0,0,0,0,0,0,0,0,0,0,1.6384,1.6385,0,1.6439,1.6439,1.644,1.6458,1.6458,1.6457,1.6457,1.6512,1.6514,1.6515,0,0,0,0,0,0,0,0,0,0,0,0,0,1.6294,1.6296,1.6384,1.6385,1.6386,1.6439,1.6439,1.644,1.6458,1.6458,1.6457,1.6457,1.6512,1.6513,1.6516,0,0,0,0,0,0,0,0,0,0,0,0,0,1.6339,1.6296,1.6384,1.6401,1.6403,1.6438,1.6439,1.644,1.6458,1.6458,1.6457,1.6457,1.6511,1.6513,1.6516,1.6538,0,0,1.6523,1.6525,0,0,0,0,0,0,0,0,1.6337,1.6343,1.6398,1.64,1.6402,1.6441,1.6428,1.6473,1.6458,1.6437,1.6457,1.6457,1.6489,1.6493,1.6504,1.6541,1.6543,1.6524,1.6525,1.6526,1.6527,0,0,0,0,0,0,0,1.6334,1.634,1.6406,1.6399,1.6401,1.6405,1.6411,1.6436,1.6464,1.6439,1.644,1.6447,1.649,1.6501,1.6505,1.6544,1.6524,1.6526,1.6527,1.6528,1.6601,1.6601,0,0,0,0,0,0,1.6328,1.6338,1.6404,1.6407,1.6368,1.6407,1.6414,1.6429,1.6464,1.6469,1.6447,1.6447,1.6497,1.6502,1.6507,1.6536,1.6526,1.6529,1.653,1.6601,1.6601,1.6602,0,0,0,0,0,0,1.6326,1.6334,1.6402,1.6373,1.6382,1.6409,1.6426,1.643,1.6442,1.647,1.6475,1.6454,1.6497,1.6504,1.653,1.6538,1.653,1.6532,1.66,1.6601,1.6601,1.6592,0,0,0,0,0,0,1.6323,1.6333,1.6342,1.6373,1.6383,1.6424,1.6426,1.6432,1.6446,1.6447,1.6478,1.6482,1.6498,1.6526,1.6533,1.6541,1.6534,1.66,1.66,1.6601,1.6592,1.6593,1.6593,0,0,0,0,0,1.632,1.6337,1.6343,1.635,1.6396,1.6425,1.6431,1.6448,1.6447,1.6456,1.6474,1.6481,1.6536,1.6529,1.6536,1.6545,1.6599,1.66,1.6601,1.6592,1.6592,1.6593,0,0,0,0,0,0,1.6307,1.6342,1.6348,1.6376,1.6397,1.6428,1.644,1.6448,1.647,1.647,1.649,1.6497,1.6522,1.6536,1.6528,1.6568,1.6568,1.657,1.6558,1.6559,1.6559,1.6556,1.6536,0,0,0,0,0,1.6307,1.6328,1.6357,1.6379,1.639,1.6413,1.6426,1.6438,1.646,1.6469,1.6489,1.6511,1.6532,1.6547,1.6568,1.6594,1.6601,1.6604,1.6604,1.6604,1.6606,1.662,1.6622,1.6605,1.6605,1.6605,0,0,1.6308,1.633,1.6342,1.6377,1.6395,1.6416,1.642,1.6443,1.6458,1.6473,1.6499,1.6514,1.6539,1.6565,1.6578,1.6578,1.6612,1.6606,1.6606,1.6607,1.6621,1.6623,1.6624,1.6605,1.6605,1.6605,0,0,1.632,1.6339,1.6359,1.6377,1.6404,1.6419,1.6423,1.6453,1.6463,1.649,1.6501,1.6519,1.6557,1.6574,1.6588,1.6605,1.6613,1.6612,1.6614,1.6627,1.6629,1.663,1.6636,1.6638,1.6613,1.6613,1.6613,0,1.6318,1.635,1.6368,1.639,1.6405,1.6419,1.6439,1.6455,1.6487,1.6497,1.6497,1.6543,1.6561,1.6591,1.6595,1.6606,1.6612,1.6608,1.6627,1.6629,1.663,1.6636,1.6638,1.6613,1.6613,1.6613,1.6613,0,1.6346,1.6368,1.6381,1.6412,1.6428,1.6449,1.6469,1.6483,1.6493,1.6508,1.6534,1.6556,1.6582,1.659,1.6599,1.6621,1.662,1.6623,1.6623,1.6631,1.6637,1.6639,1.6613,1.6613,1.6613,1.6613,0,0,1.6352,1.6392,1.6397,1.6411,1.6441,1.6458,1.6478,1.6504,1.6516,1.6537,1.6554,1.6585,1.6588,1.6604,1.6615,1.6627,1.6638,1.6629,1.6629,1.6629,1.6663,1.666,1.6662,1.6643,1.6644,1.6644,1.666,0,1.6369,1.6407,1.6423,1.6453,1.6473,1.6486,1.6504,1.6524,1.6538,1.6557,1.6573,1.6594,1.6596,1.6606,1.6618,1.6634,1.6645,1.6634,1.666,1.666,1.6653,1.6666,1.6663,1.6677,1.6663,1.6663,1.6664,0,1.6393,1.6414,1.6447,1.6474,1.6483,1.6499,1.6523,1.6541,1.6563,1.6572,1.6589,1.66,1.6621,1.6619,1.6648,1.664,1.6651,1.6661,1.6662,1.6665,1.6663,1.6669,1.6682,1.6684,1.6667,1.6667,1.6667,0,1.6394,1.6431,1.6455,1.6466,1.6499,1.6509,1.6523,1.6545,1.6559,1.658,1.6589,1.6612,1.6625,1.6642,1.6658,1.6655,1.6686,1.6685,1.6694,1.6693,1.67,1.6699,1.6715,1.6707,1.6707,1.6707,1.6707,0,1.641,1.643,1.6456,1.6471,1.6492,1.651,1.6531,1.6545,1.6565,1.6582,1.6594,1.661,1.6631,1.6649,1.6662,1.6684,1.6689,1.6697,1.67,1.6696,1.6695,1.6704,1.6704,1.6708,1.6707,1.6707,1.6707,0,1.6416,1.6434,1.6461,1.6489,1.6496,1.6511,1.6534,1.6549,1.6563,1.6585,1.6591,1.6613,1.6635,1.6653,1.6682,1.669,1.6713,1.6717,1.6706,1.6707,1.6715,1.6714,1.6737,1.6741,1.673,1.673,1.673,0,1.6425,1.644,1.6469,1.6482,1.6495,1.6516,1.653,1.6547,1.6562,1.6588,1.6599,1.6622,1.6641,1.6675,1.6694,1.6716,1.672,1.6727,1.6723,1.6718,1.672,1.6719,1.672,1.6727,1.6727,1.6727,1.6727,0,1.6439,1.6448,1.6468,1.6491,1.6508,1.6527,1.6546,1.6555,1.6576,1.6591,1.6614,1.6629,1.6658,1.668,1.6704,1.6718,1.6726,1.6728,1.6731,1.6727,1.672,1.6723,1.6706,1.6727,1.6727,1.6727,1.6727,1.6727,1.6447,1.6461,1.6483,1.6505,1.6521,1.6539,1.6553,1.6569,1.6589,1.6614,1.6623,1.6646,1.6667,1.67,1.6713,1.6731,1.6732,1.6736,1.6738,1.6738,1.6738,1.6717,1.6735,1.6735,1.6735,1.6735,1.6735,0,1.6462,1.6477,1.6497,1.6523,1.654,1.6546,1.6567,1.6581,1.6601,1.662,1.6639,1.6664,1.6686,1.6706,1.6728,1.6738,1.6742,1.6744,1.6743,1.6746,1.6736,1.6731,1.674,1.674,1.674,1.674,1.674,1.674,1.6472,1.6495,1.6506,1.6537,1.6551,1.6574,1.6586,1.6602,1.6617,1.6645,1.6663,1.6676,1.6695,1.6718,1.6738,1.6743,1.6751,1.6751,1.6757,1.6747,1.6747,1.6746,1.6741,1.6752,1.6752,1.6765,1.6765,1.6766]}]]